Weather History for Wilmington, NC

Change the Weather History Date:

Saturday, September 15, 2012

  Actual Average Record
Temperature  
Mean Temperature 76 °F 75 °F  
Max Temperature 86 °F 84 °F 95 °F (1956)
Min Temperature 66 °F 66 °F 51 °F (1880)
Degree Days  
Heating Degree Days 0 0  
Month to date heating degree days 0 0  
Since 1 July heating degree days 0 0  
Cooling Degree Days 11 10  
Month to date cooling degree days 187 176  
Year to date cooling degree days 1973 1799  
Growing Degree Days 26 (Base 50)    
Moisture  
Dew Point 66 °F    
Average Humidity 74    
Maximum Humidity 100    
Minimum Humidity 48    
Precipitation  
Precipitation 0.00 in 0.27 in 13.38 in (1999)
Month to date precipitation 3.38 4.09  
Year to date precipitation 35.42 43.06  
Sea Level Pressure  
Sea Level Pressure 30.13 in    
Wind  
Wind Speed 3 mph (NNE)    
Max Wind Speed 12 mph    
Max Gust Speed 17 mph    
Visibility 7 miles    
Events Fog    
T = Trace of Precipitation, MM = Missing Value Source: NWS Daily Summary

Daily Weather History Graph

Daily Weather History Graph

Search for Another Location

Airport:

Trip Planner

Search our weather history database for the weather conditions in past years. The results will help you decide how hot, cold, wet, or windy it might be!

Date:

Astronomy

Sep. 15, 2012 Rise Set
Actual Time 6:55 AM EDT 7:17 PM EDT
Civil Twilight 6:29 AM EDT 7:42 PM EDT
Nautical Twilight 6:00 AM EDT 8:12 PM EDT
Astronomical Twilight 5:30 AM EDT 8:41 PM EDT
Moon 6:22 AM EDT (9/15) 6:49 PM EDT (9/15)
Length of Visible Light 13h 12m
Length of Day
12h 22m
Waning Crescent, 0% of the Moon is Illuminated
Sep 15
Waning Crescent
Sep 15
New
Sep 22
First Quarter
Sep 29
Full
Oct 8
Last Quarter

Hourly Weather History & Observations

Time (EDT) Temp. Heat Index Dew Point Humidity Pressure Visibility Wind Dir Wind Speed Gust Speed Precip Events Conditions
12:53 AM 70.0 °F - 68.0 °F 93% 30.13 in 10.0 mi Calm Calm - N/A   Clear
1:53 AM 69.1 °F - 66.9 °F 93% 30.12 in 10.0 mi Calm Calm - N/A   Clear
2:53 AM 69.8 °F - 66.2 °F 88% 30.12 in 10.0 mi Calm Calm - N/A   Clear
3:53 AM 68.0 °F - 66.0 °F 93% 30.11 in 10.0 mi Calm Calm - N/A   Clear
4:53 AM 66.9 °F - 66.0 °F 97% 30.11 in 10.0 mi Calm Calm - N/A   Clear
5:31 AM 66.2 °F - 64.4 °F 94% 30.11 in 10.0 mi Calm Calm - N/A   Scattered Clouds
5:51 AM 66.2 °F - 64.4 °F 94% 30.12 in 10.0 mi Calm Calm - N/A   Mostly Cloudy
5:53 AM 66.9 °F - 64.9 °F 93% 30.12 in 10.0 mi Calm Calm - N/A   Mostly Cloudy
6:47 AM 66.2 °F - 64.4 °F 94% 30.13 in 1.8 mi Calm Calm - N/A   Overcast
6:53 AM 66.0 °F - 64.9 °F 96% 30.13 in 1.0 mi North 3.5 mph - N/A   Overcast
7:02 AM 66.2 °F - 64.4 °F 94% 30.13 in 0.5 mi NNE 3.5 mph - N/A Fog Fog
7:09 AM 66.2 °F - 64.4 °F 94% 30.14 in 0.2 mi Calm Calm - N/A Fog Fog
7:21 AM 66.2 °F - 64.4 °F 94% 30.14 in 0.5 mi Calm Calm - N/A Fog Fog
7:42 AM 66.2 °F - 64.4 °F 94% 30.15 in 1.5 mi Calm Calm - N/A   Overcast
7:53 AM 66.2 °F - 66.2 °F 100% 30.14 in 1.2 mi Calm Calm - N/A   Overcast
8:03 AM 66.2 °F - 66.2 °F 100% 30.14 in 0.8 mi North 3.5 mph - N/A   Overcast
8:11 AM 66.2 °F - 66.2 °F 100% 30.14 in 1.0 mi Calm Calm - N/A   Overcast
8:24 AM 68.0 °F - 66.2 °F 94% 30.15 in 1.5 mi NNE 3.5 mph - N/A   Overcast
8:38 AM 69.8 °F - 66.2 °F 88% 30.15 in 2.5 mi Calm Calm - N/A   Overcast
8:45 AM 69.8 °F - 66.2 °F 88% 30.15 in 4.0 mi Calm Calm - N/A   Overcast
8:53 AM 69.1 °F - 66.9 °F 93% 30.15 in 1.8 mi Calm Calm - N/A   Overcast
8:59 AM 69.8 °F - 68.0 °F 94% 30.16 in 3.0 mi Calm Calm - N/A   Overcast
9:16 AM 69.8 °F - 68.0 °F 94% 30.16 in 10.0 mi NNW 3.5 mph - N/A   Mostly Cloudy
9:32 AM 71.6 °F - 68.0 °F 88% 30.16 in 10.0 mi North 6.9 mph - N/A   Scattered Clouds
9:53 AM 75.0 °F - 68.0 °F 79% 30.16 in 10.0 mi North 8.1 mph - N/A   Clear
10:53 AM 79.0 °F - 66.9 °F 66% 30.16 in 10.0 mi NE 8.1 mph - N/A   Clear
11:53 AM 81.0 °F 83.0 °F 66.0 °F 60% 30.15 in 10.0 mi NE 6.9 mph - N/A   Clear
12:53 PM 84.0 °F 84.5 °F 62.1 °F 47% 30.14 in 10.0 mi North 4.6 mph - N/A   Clear
1:53 PM 84.9 °F 85.4 °F 62.1 °F 46% 30.12 in 10.0 mi NNW 6.9 mph - N/A   Scattered Clouds
2:53 PM 84.0 °F 85.4 °F 64.0 °F 51% 30.10 in 10.0 mi ENE 5.8 mph - N/A   Scattered Clouds
3:53 PM 82.0 °F 83.8 °F 64.9 °F 56% 30.09 in 10.0 mi ESE 4.6 mph - N/A   Clear
4:53 PM 82.0 °F 83.8 °F 64.9 °F 56% 30.08 in 10.0 mi SE 5.8 mph - N/A   Clear
5:53 PM 81.0 °F 82.7 °F 64.9 °F 58% 30.08 in 10.0 mi SE 6.9 mph - N/A   Clear
6:53 PM 78.1 °F - 66.0 °F 66% 30.09 in 10.0 mi SE 4.6 mph - N/A   Clear
7:53 PM 75.0 °F - 66.9 °F 76% 30.09 in 10.0 mi Calm Calm - N/A   Partly Cloudy
8:53 PM 73.0 °F - 68.0 °F 84% 30.11 in 10.0 mi NNE 3.5 mph - N/A   Overcast
9:53 PM 72.0 °F - 68.0 °F 87% 30.12 in 10.0 mi NNE 3.5 mph - N/A   Clear
10:53 PM 72.0 °F - 68.0 °F 87% 30.12 in 10.0 mi Calm Calm - N/A   Mostly Cloudy
11:53 PM 71.1 °F - 66.9 °F 87% 30.13 in 10.0 mi North 3.5 mph - N/A   Mostly Cloudy